Theta_e
318 321 323 319 320 329 330 329 330 328 329 329 327 325 325 327 327 325 326 326 326 326 325 327 327 327 327 326 326 325 325 323 323 322 322 322 321 312
314 312 321 324 324 324 326 330 329 329 328 328 327 327 328 327 327 325 326 326 326 325 324 325 325 326 327 327 327 326 326 324 323 322 322 322 322 315
317 313 311 319 321 324 328 329 329 329 328 327 328 328 328 328 326 325 324 324 325 325 324 325 326 326 327 327 327 327 326 326 325 323 322 322 323 321
320 319 318 315 318 321 323 322 329 328 328 327 327 327 328 326 327 326 322 321 322 323 325 323 323 325 325 326 326 326 326 326 325 324 322 323 323 322
315 318 322 321 322 323 323 328 328 329 327 328 326 327 328 328 327 326 326 323 323 322 321 322 323 323 323 325 326 326 326 326 327 325 322 320 324 322
314 316 320 322 324 324 325 328 328 329 327 327 326 327 328 328 327 326 327 325 324 324 324 324 324 324 323 322 326 326 325 326 326 326 324 322 321 322
299 308 312 318 322 325 323 323 323 327 327 326 326 328 328 327 326 327 327 326 325 325 325 325 325 325 323 324 326 326 327 325 326 325 325 322 321 321
293 297 303 304 308 312 321 323 325 326 327 326 327 327 328 326 326 327 327 326 325 324 324 324 324 324 320 317 320 318 327 327 326 326 325 324 322 321
287 291 297 302 306 306 307 313 317 322 323 326 326 327 327 326 326 325 324 323 323 322 322 321 320 320 318 318 319 321 322 322 323 325 325 324 324 322
287 286 287 294 299 302 305 306 305 306 308 314 316 318 319 320 319 319 320 319 318 319 320 319 319 317 318 318 319 322 320 321 323 325 324 324 323 323
289 288 287 289 290 297 301 301 301 304 302 306 306 306 309 311 311 310 314 310 309 311 317 317 318 316 315 317 318 319 320 321 323 323 323 323 322 322
288 288 287 289 290 294 297 299 300 300 301 302 301 302 301 304 309 308 309 309 308 306 308 311 313 313 313 312 316 318 317 319 320 319 320 322 322 321
286 287 288 288 290 291 293 293 293 294 297 297 298 300 302 305 307 305 308 309 306 306 307 310 312 314 315 317 316 317 318 318 319 319 318 319 319 319
284 283 284 285 286 287 289 290 291 292 294 296 298 299 301 301 302 304 305 303 302 303 306 309 310 311 314 314 316 318 317 317 317 317 317 318 319 319
283 283 284 284 284 285 285 286 286 287 288 289 289 289 290 290 291 295 298 298 300 301 303 306 307 310 310 312 312 314 315 316 316 318 317 318 318 318
281 280 281 282 282 283 284 284 283 283 283 284 284 285 286 287 288 289 292 294 298 300 301 303 304 304 309 310 311 311 312 312 315 316 316 316 316 316
280 280 281 280 280 281 282 282 282 282 283 282 283 283 284 284 285 286 286 288 288 290 295 297 299 302 304 306 307 309 307 307 313 312 313 314 313 313
280 279 278 277 277 277 277 279 281 281 281 282 282 282 282 282 283 284 283 284 284 285 287 289 292 296 300 301 301 304 303 306 306 306 306 310 311 312
279 277 276 275 275 275 275 275 276 278 280 281 281 281 281 281 282 282 282 283 283 283 284 285 286 287 289 290 294 296 297 300 300 301 301 303 304 306
277 276 276 276 275 275 275 275 275 275 276 279 280 280 280 280 280 281 281 281 281 282 283 283 284 285 284 285 287 290 292 293 295 296 297 297 296 297
273 273 274 274 275 275 275 275 274 275 274 275 276 278 279 279 279 279 280 280 280 280 281 282 282 283 284 285 286 287 289 291 292 293 292 292 292 291
273 272 272 272 272 273 273 274 275 275 275 275 274 275 276 278 278 278 279 279 279 279 280 280 281 282 283 284 285 285 285 287 287 287 287 288 289 288
273 272 272 272 272 272 272 272 273 273 274 274 274 274 274 275 277 278 278 278 279 279 279 279 279 280 281 281 282 283 283 284 284 285 285 286 287 289
Wind_Speed
39 40 57 49 57 63 57 52 49 32 37 38 35 30 27 30 32 30 32 29 28 28 28 32 32 31 31 31 29 31 32 32 34 34 33 31 37 39
37 36 45 58 55 59 41 49 55 50 37 39 37 33 28 32 31 28 30 30 30 29 26 28 31 34 36 34 33 30 31 30 34 36 35 36 37 41
43 41 37 40 48 52 41 49 55 55 48 45 38 35 31 32 31 27 26 30 33 32 31 30 26 29 35 38 35 33 33 35 32 37 38 38 36 40
35 43 48 47 45 53 52 40 51 58 51 51 46 44 39 34 30 23 27 25 26 29 27 24 24 26 28 31 35 36 35 34 33 34 36 37 39 40
38 37 37 41 41 54 54 53 53 52 51 52 45 41 37 36 33 27 30 33 30 31 33 31 29 28 28 33 35 35 37 38 36 35 36 37 41 40
30 34 33 37 38 42 40 42 50 49 45 44 42 38 37 35 33 31 33 34 38 36 35 35 35 34 33 33 36 35 37 39 40 38 36 36 39 42
10 10 15 26 39 31 37 40 47 48 41 42 41 36 35 34 33 31 27 29 30 32 34 37 38 34 32 32 35 38 38 38 41 40 38 36 37 39
19 15 10 5 12 24 38 39 37 40 39 38 36 34 31 29 29 30 29 28 29 31 33 34 32 33 35 37 41 41 38 38 40 41 41 39 38 40
28 23 20 16 10 3 5 22 31 36 31 34 35 35 33 28 30 27 23 21 27 32 32 35 36 34 30 30 33 32 36 39 39 38 41 38 36 36
29 31 27 23 18 13 10 5 1 8 15 25 26 29 32 31 28 28 30 31 32 30 30 38 40 39 32 29 29 30 30 34 35 34 36 36 36 37
32 32 31 30 24 17 13 11 9 6 5 0 6 14 15 17 18 23 26 31 38 42 41 44 44 45 43 37 30 32 33 32 36 37 39 41 41 39
36 36 36 33 30 23 19 17 14 13 7 4 3 3 8 10 6 14 21 27 32 36 38 36 41 40 43 40 34 32 35 33 33 34 38 40 39 41
37 38 37 32 28 25 25 24 21 16 11 8 6 4 4 5 5 14 15 23 30 35 27 26 29 26 32 33 33 31 30 27 27 32 32 37 40 41
38 36 34 32 31 30 30 26 19 17 16 15 14 15 13 10 8 8 11 17 23 27 28 19 30 34 37 42 38 37 36 36 37 32 33 34 35 34
33 32 30 31 31 33 37 35 33 32 27 27 27 24 21 19 17 12 9 13 14 16 17 22 29 33 32 38 35 36 37 39 39 33 31 34 31 36
29 28 28 30 34 37 36 36 35 34 34 35 32 28 25 23 21 20 18 17 13 12 12 16 20 24 31 34 35 40 39 38 35 37 34 33 34 33
28 29 31 35 38 39 38 37 35 35 38 37 35 34 33 31 30 28 26 26 25 24 20 15 16 21 26 29 32 36 36 38 39 40 39 39 37 35
30 34 37 39 40 40 39 38 38 39 38 36 35 35 35 35 34 33 31 30 28 26 25 23 21 19 20 21 23 28 30 33 34 36 37 38 39 38
33 37 37 37 37 37 37 37 37 36 34 34 35 35 34 34 35 36 35 33 33 32 27 24 23 20 19 20 21 23 23 23 24 28 32 32 35 35
33 34 35 36 36 35 35 35 34 34 33 32 32 32 33 35 35 35 35 35 34 33 32 27 22 21 19 20 23 25 25 24 22 22 25 26 27 25
30 30 31 31 31 32 31 32 32 33 33 32 30 30 31 31 32 32 33 32 32 32 32 30 28 23 21 18 19 18 17 17 17 17 19 21 21 20
31 30 29 28 28 29 29 29 30 32 30 31 31 31 30 29 30 31 32 33 31 30 28 28 28 24 18 16 18 16 11 10 10 10 14 19 16 18
28 28 30 31 31 30 28 28 29 29 30 30 31 31 31 30 28 28 29 29 29 29 29 29 27 22 18 13 9 5 5 6 7 11 13 14 15 18
Wind_Direction
242 243 234 232 245 246 233 235 231 226 232 233 238 240 240 237 238 249 251 252 246 243 244 245 246 244 244 245 247 244 244 246 249 250 250 250 242 237
247 248 246 228 226 238 255 239 237 235 232 240 240 243 248 243 245 250 246 245 239 238 253 254 248 247 246 245 244 246 246 246 244 247 247 244 247 239
251 247 252 241 241 239 242 238 243 238 237 242 241 245 249 244 238 243 243 240 238 239 244 250 252 250 244 243 243 245 246 247 246 244 246 246 246 242
253 255 252 245 247 233 227 244 241 245 241 242 245 246 249 243 237 244 234 237 236 236 238 242 249 250 256 254 249 246 246 248 250 249 244 242 245 248
257 248 246 246 236 229 232 229 240 241 245 240 241 244 247 245 243 240 238 238 239 239 243 248 253 257 258 252 248 246 246 247 248 252 252 243 244 249
247 245 236 232 224 227 220 220 228 236 242 234 234 235 238 242 245 244 244 240 240 245 252 257 259 260 263 257 249 247 247 246 247 248 252 250 246 250
60 194 201 218 218 217 209 228 228 230 236 230 229 231 232 236 245 246 242 247 248 247 255 259 262 263 260 254 250 252 251 247 245 248 251 252 253 247
56 59 88 123 190 210 209 199 208 213 221 224 224 227 232 239 246 248 253 253 256 254 263 259 259 263 263 262 257 256 251 251 252 248 250 252 253 250
41 46 54 72 87 85 190 212 213 216 208 214 213 214 222 208 211 213 221 237 258 262 264 266 269 267 263 261 258 253 250 249 248 249 254 255 260 261
39 37 40 50 64 67 74 66 60 174 197 197 211 217 222 225 234 246 245 252 253 254 261 264 264 266 267 263 256 253 253 248 240 245 251 255 258 259
36 39 33 35 39 55 66 74 71 63 353 283 233 233 239 232 233 247 263 271 272 264 250 255 261 269 268 265 260 259 261 257 241 244 249 252 256 259
37 35 35 32 28 36 50 54 47 29 40 16 321 174 214 223 247 254 258 267 268 277 267 258 263 263 272 267 257 256 263 256 250 255 255 251 252 255
40 39 36 31 28 29 37 40 35 23 24 31 25 9 334 359 250 245 258 261 263 258 257 258 261 256 265 255 266 265 271 268 257 257 265 256 255 257
39 41 41 40 38 42 45 42 35 34 30 33 18 16 13 357 324 289 260 256 258 263 258 242 254 257 258 267 265 265 263 263 266 264 266 262 256 257
39 40 39 37 40 41 42 39 36 37 37 44 39 32 22 10 352 339 310 290 280 271 256 248 253 252 255 257 260 266 267 269 270 264 272 261 265 264
34 38 40 42 44 43 41 39 39 37 36 39 37 31 28 24 16 9 357 344 322 291 273 257 253 256 250 258 264 262 262 263 261 265 265 266 265 270
31 32 30 30 32 35 35 34 31 29 30 31 29 27 24 21 20 18 14 7 360 345 327 301 279 265 257 260 260 260 261 260 260 261 261 266 265 267
29 34 34 32 32 29 26 26 24 25 24 23 22 21 20 18 16 16 15 14 7 359 349 337 322 300 281 272 268 265 268 270 264 261 261 261 262 264
27 30 30 30 30 27 25 24 22 22 19 18 17 17 15 15 13 11 10 8 4 0 359 353 345 334 316 302 286 285 283 275 276 272 264 260 261 263
24 24 23 22 22 21 20 20 19 17 18 17 16 14 12 11 10 8 7 5 1 358 356 354 349 338 328 314 300 283 288 288 281 273 269 261 256 256
22 20 19 18 15 13 15 15 13 15 14 14 14 14 12 8 7 5 2 2 359 357 353 351 345 334 318 310 300 298 294 281 272 269 265 251 244 240
10 10 11 10 10 9 9 9 8 7 9 9 10 10 9 8 5 3 360 357 356 356 352 351 349 344 336 322 305 301 280 268 253 240 238 237 220 203
0 1 -0 359 0 2 3 4 3 4 3 4 5 5 4 2 3 1 359 356 353 352 352 351 352 352 344 331 313 279 222 211 204 195 205 231 250 252